This demonstration page uses our WeatherBlox Daily Observations layout. Learn more.

Left ArrowRight Arrow

39.12711, -84.51439

Hourly Observations for December 9, 2018

Temp ( °F °C ) Dew Point ( °F °C ) Humidity (%) Winds ( mph kmh ) Pressure ( in mb ) Visibility ( mi km ) Precip ( " mm )
12:53 am 00:53 Clear 27 -2.8 19 -7.2 72 72 NE 7 11 30.43 1031 10 16 0.00 0.00
1:53 am 01:53 Clear 27 -2.8 19 -7.2 72 72 NE 7 11 30.40 1030 10 16 0.00 0.00
2:53 am 02:53 Clear 27 -2.8 19 -7.2 72 72 NE 10 17 30.38 1029 10 16 0.00 0.00
3:53 am 03:53 Clear 27 -2.8 19 -7.2 72 72 NNE 9 15 30.36 1028 10 16 0.00 0.00
4:53 am 04:53 Clear 26 -3.3 19 -7.2 75 75 NE 8 13 30.35 1028 10 16 0.00 0.00
5:53 am 05:53 Clear 26 -3.3 19 -7.2 75 75 NE 9 15 30.33 1027 10 16 0.00 0.00
6:53 am 06:53 Clear 26 -3.3 19 -7.2 75 75 NE 9 15 30.32 1027 10 16 0.00 0.00
7:53 am 07:53 Sunny 26 -3.3 19 -7.2 75 75 NNE 7 11 30.31 1026 10 16 0.00 0.00
8:53 am 08:53 Sunny 27 -2.8 19 -7.2 72 72 NE 7 11 30.31 1027 9 14 0.00 0.00
9:53 am 09:53 Sunny 28 -2.2 19 -7.2 69 69 NE 7 11 30.33 1027 10 16 0.00 0.00
10:53 am 10:53 Sunny 30 -1.1 19 -7.2 64 64 NE 7 11 30.33 1027 10 16 0.00 0.00
11:53 am 11:53 Sunny 33 0.6 20 -6.7 58 58 N 6 9 30.31 1026 10 16 0.00 0.00
12:53 pm 12:53 Sunny 36 2.2 21 -6.1 55 55 ENE 8 13 30.28 1026 10 16 0.00 0.00
1:53 pm 13:53 Sunny 38 3.3 21 -6.1 51 51 N 8 13 30.26 1025 10 16 0.00 0.00
2:53 pm 14:53 Sunny 39 3.9 22 -5.6 50 50 NE 10 17 30.24 1024 10 16 0.00 0.00
3:53 pm 15:53 Sunny 38 3.3 22 -5.6 52 52 NE 7 11 30.23 1024 10 16 0.00 0.00
4:53 pm 16:53 Sunny 36 2.2 21 -6.1 55 55 NE 6 9 30.24 1024 10 16 0.00 0.00
5:53 pm 17:53 Clear 31 -0.6 19 -7.2 61 61 NE 6 9 30.24 1024 10 16 0.00 0.00
6:53 pm 18:53 Clear 28 -2.2 20 -6.7 72 72 ENE 3 6 30.24 1024 10 16 0.00 0.00
7:53 pm 19:53 Clear 27 -2.8 22 -5.6 81 81 Calm 30.25 1024 10 16 0.00 0.00
8:53 pm 20:53 Clear 26 -3.3 21 -6.1 81 81 Calm 30.25 1025 10 16 0.00 0.00
9:53 pm 21:53 Clear 25 -3.9 21 -6.1 85 85 Calm 30.26 1025 10 16 0.00 0.00
10:53 pm 22:53 Clear 25 -3.9 17 -8.3 72 72 NNE 6 9 30.25 1025 10 16 0.00 0.00
11:53 pm 23:53 Clear 24 -4.4 17 -8.3 75 75 NNE 3 6 30.26 1025 10 16 0.00 0.00

Powered by AerisWeather